Flag for U.S.A. Weather past 2 weeks in Portsmouth, Virginia, U.S.A.

Now
43 °F

Overcast.


Feels Like: 38 °F
Forecast: 31 / 45 °F
Wind: 9 mph from Northeast

Location: Norfolk Naval Air Station

Current Time: Dec 21, 2014 at 11:15:32 AM

Latest Report: Dec 21, 2014 at 9:59 AM


Visibility: 10 mi

Pressure: 30.36 "Hg

Humidity: 62%

Dew point: 31 °F

Location of PortsmouthLocation

Historic Weather in Portsmouth — Graph

°F

Portsmouth temperature yesterday

Maximum temperature yesterday: 43 °F (at 10:59 AM)
Minimum temperature yesterday: 36 °F (at 9:59 PM)
Average temperature yesterday: 40 °F

Past Weeks' High & Low Weather Summary

 TemperatureHumidityPressure
High65 °F (Dec 16, 12:59 PM)90% (Dec 6, 6:59 PM)30.46 "Hg (Dec 6, 6:59 PM)
Low36 °F (Dec 12, 11:59 PM)29% (Dec 12, 1:59 PM)29.81 "Hg (Dec 10, 1:59 PM)
Average46 °F63%30.10 "Hg
* Reported Dec 6 9:59 AM — Dec 21 9:59 AM, Portsmouth, Weather by CustomWeather, © 2014

Note: Actual official high and low records may vary slightly from our data, if they occured in-between our weather recording intervals... More about our weather records

Advertising

Portsmouth weather history for previous 24 hours

 ConditionsComfort  
Time TempWeatherWind HumidityBarometerVisibility
9:59 AM
Dec 21
43 °FOvercast.9 mph62%30.36 "Hg10 mi
8:59 AM42 °FOvercast.9 mph65%30.35 "Hg10 mi
7:59 AM41 °FOvercast.8 mph65%30.34 "Hg10 mi
6:59 AM41 °FPassing clouds.7 mph65%30.32 "Hg10 mi
5:59 AM41 °FPassing clouds.9 mph60%30.31 "Hg10 mi
4:59 AM40 °FPassing clouds.9 mph60%30.30 "Hg10 mi
3:59 AM39 °FPassing clouds.8 mph62%30.30 "Hg10 mi
2:59 AM37 °FClear.6 mph67%30.31 "Hg10 mi
1:59 AM39 °FPassing clouds.6 mph67%30.30 "Hg10 mi
12:59 AM37 °FPassing clouds.7 mph73%30.30 "Hg10 mi
11:59 PM
Dec 20
37 °FPassing clouds.No wind70%30.30 "Hg9 mi
10:59 PM36 °FPassing clouds.No wind75%30.31 "Hg8 mi
9:59 PM36 °FPassing clouds.No wind75%30.31 "Hg9 mi
8:59 PM37 °FPassing clouds.No wind73%30.31 "Hg9 mi
7:59 PM37 °FPassing clouds.No wind70%30.30 "Hg9 mi
6:59 PM38 °FPassing clouds.No wind70%30.31 "Hg10 mi
5:59 PM39 °FPartly cloudy.No wind67%30.29 "Hg10 mi
4:59 PM41 °FMostly cloudy.3 mph62%30.28 "Hg10 mi
3:59 PM42 °FMostly cloudy.No wind62%30.28 "Hg10 mi
2:59 PM43 °FPartly sunny.5 mph60%30.27 "Hg10 mi
1:59 PM42 °FMostly cloudy.No wind60%30.29 "Hg10 mi
12:59 PM42 °FMostly cloudy.3 mph60%30.28 "Hg10 mi
11:59 AM42 °FCloudy.6 mph60%30.30 "Hg10 mi
Weather by CustomWeather, © 2014

See weather overviewHow to use our weather pages